Weather History for Marathon, FL

Change the Weather History Date:

Tuesday, July 2, 2013

  Actual Average Record
Temperature  
Mean Temperature 87 °F 85 °F  
Max Temperature 92 °F 91 °F 93 °F (1996)
Min Temperature 81 °F 79 °F 73 °F (2007)
Degree Days  
Heating Degree Days 0 0  
Month to date heating degree days 0 0  
Since 1 June heating degree days 0 0  
Since 1 July heating degree days 0 0  
Cooling Degree Days 22 20  
Month to date cooling degree days 44 40  
Year to date cooling degree days 2490 2177  
Since 1 June cooling degree days 660 634  
Growing Degree Days 34 (Base 50)    
Moisture  
Dew Point 73 °F    
Average Humidity 67    
Maximum Humidity 74    
Minimum Humidity 59    
Precipitation  
Precipitation 0.02 in 0.15 in 1.05 in (2006)
Month to date precipitation 0.02 0.31  
Year to date precipitation 29.03 17.86  
Snow  
Snow 0.00 in - - ()
Month to date snowfall 0.0  
Since 1 June snowfall 0.0  
Since 1 July snowfall 0.0  
Snow Depth -    
Sea Level Pressure  
Sea Level Pressure 30.03 in    
Wind  
Wind Speed 7 mph (SE)    
Max Wind Speed 17 mph    
Max Gust Speed 25 mph    
Visibility 9 miles    
Events Rain , Thunderstorm    
T = Trace of Precipitation, MM = Missing Value Source: NWS Daily Summary

Daily Weather History Graph

Daily Weather History Graph

Search for Another Location

Airport:

Trip Planner

Search our weather history database for the weather conditions in past years. The results will help you decide how hot, cold, wet, or windy it might be!

Date:

Astronomy

Jul. 02, 2013 Rise Set
Actual Time 6:39 AM EDT 8:17 PM EDT
Civil Twilight 6:13 AM EDT 8:43 PM EDT
Nautical Twilight 5:42 AM EDT 9:13 PM EDT
Astronomical Twilight 5:10 AM EDT 9:45 PM EDT
Moon 2:23 AM EDT (7/2) 3:43 PM EDT (7/2)
Length of Visible Light 14h 29m
Length of Day
13h 38m
Waning Crescent, 26% of the Moon is Illuminated
Jul 2
Waning Crescent
Jul 8
New
Jul 15
First Quarter
Jul 22
Full
Jul 29
Last Quarter

Hourly Weather History & Observations

Time (EDT) Temp. Heat Index Dew Point Humidity Pressure Visibility Wind Dir Wind Speed Gust Speed Precip Events Conditions
12:53 AM 84.0 °F 91.2 °F 73.9 °F 72% 30.01 in 10.0 mi East 5.8 mph - 0.00 in   Overcast
1:53 AM 84.9 °F 93.3 °F 75.0 °F 72% 30.00 in 10.0 mi ESE 5.8 mph - N/A   Clear
2:53 AM 84.9 °F 93.3 °F 75.0 °F 72% 29.99 in 10.0 mi SE 5.8 mph - N/A   Partly Cloudy
3:53 AM 84.9 °F 93.3 °F 75.0 °F 72% 29.97 in 10.0 mi SSE 8.1 mph - 0.00 in   Scattered Clouds
4:53 AM 84.9 °F 92.1 °F 73.9 °F 69% 29.96 in 10.0 mi SSE 9.2 mph - N/A   Partly Cloudy
5:53 AM 84.9 °F 93.3 °F 75.0 °F 72% 29.98 in 10.0 mi SE 6.9 mph - N/A   Clear
6:53 AM 84.9 °F 93.3 °F 75.0 °F 72% 30.00 in 10.0 mi SE 8.1 mph - N/A   Partly Cloudy
7:53 AM 86.0 °F 93.8 °F 73.9 °F 67% 30.01 in 10.0 mi SE 8.1 mph - N/A   Clear
8:53 AM 87.1 °F 95.4 °F 73.9 °F 65% 30.03 in 10.0 mi SSE 6.9 mph - N/A   Clear
10:53 AM 90.0 °F 99.0 °F 73.9 °F 59% 30.05 in 10.0 mi Variable 4.6 mph - N/A   Clear
11:53 AM 89.1 °F 98.0 °F 73.9 °F 61% 30.05 in 10.0 mi Variable 5.8 mph - N/A   Clear
12:53 PM 91.0 °F 101.6 °F 75.0 °F 59% 30.05 in 10.0 mi Variable 5.8 mph - N/A   Clear
1:47 PM 89.6 °F 99.8 °F 75.2 °F 62% 30.04 in 10.0 mi SSE 5.8 mph - N/A Thunderstorm Mostly Cloudy
1:53 PM 89.1 °F 99.1 °F 75.0 °F 63% 30.04 in 10.0 mi South 4.6 mph - N/A Thunderstorm Mostly Cloudy
2:08 PM 87.8 °F 95.6 °F 73.4 °F 62% 30.04 in 10.0 mi SSE 12.7 mph 19.6 mph N/A   Overcast
2:23 PM 84.2 °F 89.6 °F 71.6 °F 66% 30.03 in 5.0 mi South 9.2 mph 21.9 mph 0.00 in Rain , Thunderstorm Light Rain
2:53 PM 87.1 °F 92.8 °F 71.1 °F 59% 30.04 in 10.0 mi ESE 8.1 mph 17.3 mph 0.00 in Thunderstorm Partly Cloudy
3:03 PM 87.8 °F 93.8 °F 71.6 °F 58% 30.04 in 10.0 mi East 10.4 mph - N/A   Scattered Clouds
3:26 PM 82.4 °F 86.3 °F 69.8 °F 66% 30.03 in 10.0 mi ENE 12.7 mph 20.7 mph 0.00 in   Overcast
3:49 PM 82.4 °F 87.2 °F 71.6 °F 70% 30.02 in 7.0 mi ESE 12.7 mph 25.3 mph 0.02 in Thunderstorm Mostly Cloudy
3:53 PM 82.0 °F 87.4 °F 73.0 °F 74% 30.03 in 7.0 mi ESE 11.5 mph 21.9 mph 0.02 in Rain , Thunderstorm Light Rain
4:19 PM 82.4 °F 87.2 °F 71.6 °F 70% 30.00 in 10.0 mi SE 13.8 mph 20.7 mph 0.00 in Thunderstorm Partly Cloudy
4:53 PM 82.9 °F 88.0 °F 72.0 °F 69% 30.02 in 10.0 mi SE 11.5 mph 21.9 mph 0.00 in   Mostly Cloudy
5:53 PM 82.9 °F 88.8 °F 73.0 °F 72% 30.02 in 10.0 mi ESE 6.9 mph - 0.00 in Thunderstorm Scattered Clouds
6:10 PM 84.2 °F 90.9 °F 73.4 °F 70% 30.02 in 10.0 mi SE 8.1 mph - N/A   Scattered Clouds
6:53 PM 84.0 °F 91.9 °F 75.0 °F 74% 30.04 in 10.0 mi SE 5.8 mph - N/A Thunderstorm Partly Cloudy
7:22 PM 78.8 °F - 71.6 °F 78% 30.06 in 1.8 mi SSW 9.2 mph 20.7 mph 0.08 in Rain , Thunderstorm Heavy Thunderstorms and Rain
7:36 PM 78.8 °F - 71.6 °F 78% 30.06 in 3.0 mi SW 3.5 mph - 0.15 in Rain , Thunderstorm Light Thunderstorms and Rain
7:53 PM 78.1 °F - 73.0 °F 84% 30.06 in 7.0 mi West 4.6 mph - 0.16 in Rain , Thunderstorm Light Rain
8:10 PM 77.0 °F - 71.6 °F 83% 30.07 in 9.0 mi WNW 5.8 mph - 0.01 in Rain Light Rain
8:53 PM 77.0 °F - 72.0 °F 84% 30.09 in 10.0 mi Calm Calm - 0.01 in Rain Light Rain
9:53 PM 78.1 °F - 73.0 °F 84% 30.10 in 10.0 mi Calm Calm - 0.01 in Rain Light Rain
10:53 PM 78.1 °F - 73.0 °F 84% 30.09 in 10.0 mi Calm Calm - 0.01 in   Clear
11:53 PM 79.0 °F - 73.0 °F 82% 30.10 in 10.0 mi East 4.6 mph - N/A   Clear